contacte
inicio
- ACTUALIZADO a las 5:40
Cámara en vivo
A 5 metros de altura
Dirección Noreste
Datos del día de Hoy
Parameter                   Max   Max Time        Min   Min Time    Average
Wind Direction              202       1:10        194       0:00        202
Wind Speed                    6       1:10          0       0:00          1
Wind Gust                     6       1:10          0       0:30          2
In Humidity                  48       5:15         43       0:00         46
Humidity                     82       5:12         69       0:00         77
In Temp                    22.7       0:00       21.6       5:37       22.1
Out Temp                   15.0       0:00       12.7       5:39       13.8
Raw Barometer           1009.43       0:09    1008.04       4:24    1008.72
Total Rain               248.00       0:00     248.00       0:00     248.00




7/5/26
Time         Wind Dir   Wind Spd  Wind Gust     Hum In   Humidity    Temp In       Temp  Raw Barom   Tot Rain
                    °      km/hr      km/hr          %          %         °C         °C         mb         mm
0:00              194          2          3         43         69       22.7       15.0    1009.29     248.00
0:20              200          0          5         44         72       22.6       14.6    1009.39     248.00
0:40              201          2          2         44         75       22.5       14.6    1009.39     248.00
1:00              201          5          5         45         76       22.4       14.8    1009.26     248.00
1:20              202          0          6         45         76       22.4       14.7    1009.22     248.00
1:40              202          0          3         46         76       22.3       14.2    1009.19     248.00
2:00              202          0          3         46         78       22.3       13.9    1009.02     248.00
2:20              202          0          2         46         77       22.2       13.9    1008.85     248.00
2:40              202          0          0         46         77       22.2       13.8    1008.85     248.00
3:00              202          0          0         46         77       22.1       13.7    1008.65     248.00
3:20              202          0          0         46         77       22.1       13.4    1008.55     248.00
3:40              201          0          3         47         79       21.9       13.3    1008.34     248.00
4:00              200          0          3         47         80       21.9       13.1    1008.18     248.00
4:20              200          0          0         47         80       21.8       13.0    1008.14     248.00
4:40              200          0          0         47         81       21.8       12.9    1008.18     248.00
5:00              200          0          0         47         81       21.7       12.9    1008.24     248.00
5:20              200          0          0         48         82       21.6       13.1    1008.34     248.00
5:40              200          0          0         48         82       21.6       12.7    1008.31     248.00
Miembro de: